Flag for China Weather past 2 weeks in Hangzhou, Zhejiang, China

Now
64 °F

Rain showers. Passing clouds.


Feels Like: 64 °F
Forecast: 64 / 67 °F
Wind: No wind

Location: Hangzhou Airport

Current Time: Jul 5, 2015 at 11:11:22 PM

Latest Report: Jul 5, 2015 at 10:30 PM


Visibility: 4 mi

Pressure: 29.86 "Hg

Humidity: 88%

Dew point: 61 °F

Location of HangzhouLocation

Historic Weather in Hangzhou — Graph

°F

Hangzhou temperature yesterday

Maximum temperature yesterday: 75 °F (at 7:00 AM)
Minimum temperature yesterday: 64 °F (at 5:00 PM)
Average temperature yesterday: 71 °F

Past Weeks' High & Low Weather Summary

 TemperatureHumidityPressure
High97 °F (Jun 30, 3:00 PM)89% (Jun 22, 10:00 AM)29.86 "Hg (Jun 22, 10:00 AM)
Low64 °F (Jul 4, 5:00 PM)45% (Jul 2, 5:30 PM)29.45 "Hg (Jun 30, 1:30 PM)
Average78 °F75%29.67 "Hg
* Reported Jun 20 10:00 PM — Jul 5 10:00 PM, Hangzhou, Weather by CustomWeather, © 2015

Note: Actual official high and low records may vary slightly from our data, if they occured in-between our weather recording intervals... More about our weather records

Advertising

Hangzhou weather history for previous 24 hours

 ConditionsComfort  
Time TempWeatherWind HumidityBarometerVisibility
10:00 PM
Sun, Jul 5
64 °FRain showers. Passing clouds.1 mph88%29.86 "Hg4 mi
9:30 PM64 °FRain showers. Passing clouds.1 mph88%29.86 "Hg4 mi
9:00 PM64 °FSprinkles. Passing clouds.No wind88%29.86 "Hg4 mi
8:30 PM64 °FSprinkles. Passing clouds.1 mph83%29.86 "Hg4 mi
8:00 PM64 °FSprinkles. Passing clouds.3 mph88%29.86 "Hg4 mi
7:30 PM64 °FSprinkles. Passing clouds.8 mph88%29.86 "Hg4 mi
7:00 PM66 °FRain showers. Partly sunny.8 mph83%29.86 "Hg4 mi
6:30 PM66 °FRain showers. Partly sunny.6 mph83%29.83 "Hg5 mi
6:00 PM66 °FLight rain. Partly sunny.3 mph78%29.83 "HgN/A
5:30 PM66 °FLight rain. Partly sunny.6 mph78%29.83 "HgN/A
5:00 PM68 °FLight rain. Partly sunny.1 mph78%29.83 "HgN/A
4:30 PM68 °FLight rain. Partly sunny.3 mph78%29.83 "HgN/A
4:00 PM68 °FLight rain. Partly sunny.1 mph78%29.83 "HgN/A
3:30 PM68 °FPartly sunny.3 mph78%29.83 "HgN/A
3:00 PM68 °FPartly sunny.3 mph78%29.83 "HgN/A
2:30 PM68 °FLight rain. Partly sunny.3 mph83%29.83 "HgN/A
2:00 PM66 °FSprinkles. Partly sunny.6 mph78%29.83 "HgN/A
1:30 PM66 °FSprinkles. Broken clouds.3 mph83%29.83 "Hg4 mi
1:00 PM66 °FSprinkles. Fog.6 mph83%29.83 "Hg3 mi
12:30 PM66 °FSprinkles. Fog.8 mph83%29.83 "Hg3 mi
11:30 AM68 °FRain showers. Fog.8 mph83%29.83 "Hg3 mi
11:00 AM68 °FSprinkles. Broken clouds.6 mph83%29.86 "HgN/A
10:30 AM68 °FSprinkles. Broken clouds.6 mph83%29.83 "HgN/A
10:00 AM68 °FSprinkles. Broken clouds.8 mph88%29.86 "HgN/A
9:30 AM68 °FRain showers. Broken clouds.3 mph88%29.86 "Hg5 mi
9:00 AM68 °FRain showers. Fog.3 mph83%29.86 "Hg2 mi
8:30 AM66 °FRain showers. Fog.1 mph88%29.86 "Hg1 mi
8:00 AM66 °FSprinkles. Fog.3 mph88%29.86 "Hg2 mi
7:30 AM66 °FRain showers. Fog.3 mph88%29.86 "Hg2 mi
7:00 AM66 °FLight rain. Fog.3 mph88%29.86 "Hg3 mi
6:30 AM66 °FLight rain. Fog.3 mph88%29.83 "Hg2 mi
6:00 AM66 °FLight rain. Fog.3 mph83%29.83 "Hg2 mi
5:30 AM66 °FLight rain. Fog.3 mph83%29.83 "Hg2 mi
5:00 AM66 °FLight rain. Fog.3 mph83%29.83 "Hg2 mi
4:30 AM66 °FLight rain. Fog.3 mph88%29.83 "Hg2 mi
4:00 AM66 °FLight rain. Fog.3 mph88%29.83 "Hg2 mi
3:30 AM66 °FLight rain. Fog.3 mph88%29.80 "Hg2 mi
3:00 AM66 °FLight rain. Fog.1 mph88%29.83 "Hg2 mi
2:30 AM66 °FLight rain. Fog.1 mph88%29.83 "Hg3 mi
2:00 AM66 °FLight rain. Fog.No wind88%29.83 "Hg3 mi
1:30 AM66 °FLight rain. Fog.1 mph88%29.83 "Hg2 mi
1:00 AM66 °FLight rain. Fog.No wind88%29.83 "Hg2 mi
12:30 AM66 °FLight rain. Fog.1 mph88%29.83 "Hg1 mi
12:00 AM66 °FLight rain. Fog.No wind88%29.83 "Hg1 mi
11:30 PM
Sat, Jul 4
66 °FLight rain. Fog.1 mph88%29.86 "Hg1 mi
11:00 PM66 °FSprinkles. Fog.No wind83%29.86 "Hg1 mi
Weather by CustomWeather, © 2015

See weather overviewHow to use our weather pages